DW0937 Weather Reports


Display with metric or nautical units.
time (UTC)temp
F
wind
direction
speed
MPH
gust
MPH
rain 1hr
in
rain 24hr
in
rain mn
in
humidity
%
barometer
mb
20210301212235 23 336 2.0 6.0 0.00 0.03 0.02 46 1028.0
20210301211723 23 330 3.0 6.0 0.00 0.03 0.02 44 1028.2
20210301211220 23 254 3.0 7.0 0.00 0.03 0.02 43 1028.3
20210301210710 23 334 3.0 7.0 0.00 0.04 0.02 44 1028.3
20210301210213 23 290 2.0 9.0 0.00 0.04 0.02 46 1028.3
20210301205735 23 245 2.0 9.0 0.00 0.04 0.02 47 1028.3
20210301205244 23 325 2.0 5.0 0.00 0.04 0.02 46 1028.3
20210301204701 22 250 2.0 7.0 0.00 0.04 0.02 47 1028.2
20210301204147 22 302 2.0 7.0 0.00 0.04 0.02 47 1028.2
20210301203637 22 309 2.0 6.0 0.00 0.04 0.02 46 1028.2
20210301203430 22 289 2.0 6.0 0.00 0.04 0.02 47 1028.2
20210301202751 21 325 2.0 4.0 0.00 0.04 0.02 46 1028.1
20210301202115 22 338 3.0 10.0 0.00 0.05 0.02 45 1028.1
20210301201647 22 327 5.0 10.0 0.00 0.05 0.02 42 1028.2
20210301201103 22 348 4.0 11.0 0.00 0.05 0.02 44 1028.2
20210301200605 22 323 3.0 11.0 0.00 0.05 0.02 45 1028.2
20210301200047 21 347 3.0 9.0 0.00 0.05 0.02 47 1028.2
20210301195552 22 343 3.0 9.0 0.00 0.05 0.02 46 1028.3
20210301195212 21 336 2.0 6.0 0.00 0.05 0.02 47 1028.4
20210301194538 21 304 3.0 6.0 0.00 0.05 0.02 47 1028.5
20210301194028 21 282 3.0 8.0 0.00 0.06 0.02 50 1028.5
20210301193551 21 5 4.0 10.0 0.01 0.06 0.02 49 1028.5
20210301193303 21 321 3.0 9.0 0.01 0.06 0.02 49 1028.4
20210301192550 21 325 3.0 6.0 0.01 0.06 0.02 48 1028.3
20210301192022 20 317 3.0 8.0 0.01 0.06 0.02 48 1028.3
20210301191457 20 342 3.0 9.0 0.01 0.07 0.02 46 1028.2
20210301190950 21 47 3.0 9.0 0.01 0.07 0.02 50 1028.2
20210301190443 20 11 2.0 8.0 0.01 0.07 0.02 46 1028.3
20210301185938 20 5 3.0 8.0 0.01 0.07 0.02 47 1028.3
20210301185435 20 0 3.0 8.0 0.01 0.08 0.02 48 1028.5
20210301185036 20 317 4.0 8.0 0.01 0.08 0.02 48 1028.4
20210301184435 20 333 4.0 8.0 0.01 0.09 0.02 45 1028.4
20210301183932 20 5 4.0 8.0 0.01 0.09 0.02 49 1028.4
20210301183701 20 336 3.0 8.0 0.00 0.08 0.01 50 1028.5
20210301183430 20 355 3.0 8.0 0.00 0.08 0.01 50 1028.8
20210301182452 19 345 3.0 8.0 0.00 0.08 0.01 47 1028.6
20210301181930 19 349 3.0 8.0 0.00 0.09 0.01 49 1028.6
20210301181431 19 333 4.0 8.0 0.00 0.09 0.01 46 1028.5
20210301180929 19 15 4.0 11.0 0.01 0.09 0.01 47 1028.4
20210301180434 19 46 4.0 11.0 0.01 0.09 0.01 49 1028.5
20210301175935 18 355 4.0 7.0 0.01 0.09 0.01 50 1028.4
20210301175431 18 320 5.0 9.0 0.01 0.09 0.01 48 1028.4
20210301175131 18 337 5.0 9.0 0.01 0.10 0.01 49 1028.4
20210301174430 18 321 4.0 8.0 0.01 0.10 0.01 50 1028.4
20210301173929 18 9 3.0 8.0 0.01 0.10 0.01 50 1028.4
20210301173430 18 350 3.0 7.0 0.01 0.10 0.01 53 1028.4
20210301173154 17 0 4.0 9.0 0.01 0.11 0.01 52 1028.4
20210301172439 17 329 5.0 9.0 0.01 0.11 0.01 54 1028.4
20210301171912 17 355 4.0 10.0 0.01 0.11 0.01 52 1028.5
20210301171405 17 345 4.0 10.0 0.01 0.11 0.01 52 1028.6
20210301170852 17 349 4.0 10.0 0.00 0.11 0.00 52 1028.5
20210301170353 17 317 4.0 10.0 0.00 0.11 0.00 55 1028.5
20210301165845 17 297 4.0 10.0 0.00 0.11 0.00 56 1028.5
20210301165340 17 341 4.0 9.0 0.00 0.12 0.00 56 1028.5
20210301164930 16 33 5.0 10.0 0.00 0.12 0.00 57 1028.3
20210301164327 16 345 5.0 10.0 0.00 0.12 0.00 59 1028.2
20210301163820 15 355 4.0 8.0 0.00 0.12 0.00 57 1028.2
20210301163518 16 319 5.0 10.0 0.00 0.12 0.00 60 1028.2
20210301163202 15 319 5.0 10.0 0.00 0.12 0.00 59 1028.2
20210301162306 15 348 6.0 10.0 0.00 0.12 0.00 61 1028.3
20210301161757 15 323 6.0 10.0 0.00 0.12 0.00 61 1028.2
20210301161247 15 355 5.0 10.0 0.00 0.12 0.00 63 1028.1
20210301160750 15 313 4.0 10.0 0.00 0.12 0.00 63 1028.2
20210301160237 15 51 5.0 11.0 0.00 0.12 0.00 67 1028.1
20210301155734 15 304 5.0 12.0 0.00 0.12 0.00 68 1028.1
20210301155231 15 342 5.0 12.0 0.00 0.13 0.00 71 1028.0
20210301154722 14 332 5.0 10.0 0.00 0.13 0.00 70 1028.0
20210301154215 14 321 5.0 10.0 0.00 0.13 0.00 70 1027.8
20210301153713 14 0 6.0 11.0 0.00 0.13 0.00 72 1027.8
20210301153213 14 10 6.0 12.0 0.00 0.13 0.00 72 1027.7
20210301152842 14 308 6.0 13.0 0.00 0.13 0.00 72 1027.7
20210301152214 14 0 4.0 13.0 0.00 0.13 0.00 74 1027.6
20210301151756 14 322 4.0 9.0 0.00 0.13 0.00 83 1027.4
20210301151213 14 324 5.0 9.0 0.00 0.13 0.00 83 1027.4
20210301150711 14 16 5.0 9.0 0.00 0.13 0.00 76 1027.5
20210301150212 13 328 5.0 10.0 0.00 0.13 0.00 76 1027.4
20210301145713 13 0 5.0 11.0 0.00 0.13 0.00 77 1027.4
20210301145214 13 43 5.0 11.0 0.00 0.13 0.00 78 1027.5
20210301144713 13 337 6.0 14.0 0.00 0.13 0.00 78 1027.4
20210301144212 13 22 7.0 14.0 0.00 0.13 0.00 79 1027.3
20210301143716 13 41 6.0 12.0 0.00 0.13 0.00 79 1027.2
20210301143211 13 42 5.0 10.0 0.00 0.13 0.00 79 1027.2
20210301142825 13 0 5.0 12.0 0.00 0.13 0.00 80 1026.9
20210301142211 13 347 5.0 12.0 0.00 0.13 0.00 81 1026.9
20210301141712 13 16 5.0 12.0 0.00 0.13 0.00 81 1026.9
20210301141210 13 355 6.0 12.0 0.00 0.13 0.00 81 1026.7
20210301140715 13 355 6.0 12.0 0.00 0.13 0.00 82 1026.6
20210301140211 13 319 5.0 10.0 0.00 0.13 0.00 82 1026.5
20210301135712 13 17 6.0 15.0 0.00 0.13 0.00 83 1026.4
20210301135232 13 351 6.0 15.0 0.00 0.13 0.00 83 1026.4
20210301134710 13 347 5.0 10.0 0.00 0.13 0.00 84 1026.3
20210301134428 13 13 5.0 9.0 0.00 0.13 0.00 84 1026.2
20210301133711 13 355 6.0 12.0 0.00 0.13 0.00 84 1026.2
20210301133211 13 350 5.0 12.0 0.00 0.13 0.00 85 1026.0
20210301132713 13 9 5.0 11.0 0.00 0.13 0.00 85 1026.0
20210301132212 13 334 5.0 10.0 0.00 0.13 0.00 85 1025.8
20210301131820 13 5 5.0 10.0 0.00 0.13 0.00 85 1025.7
20210301131157 13 5 4.0 10.0 0.00 0.13 0.00 85 1025.6
20210301130655 13 28 5.0 8.0 0.00 0.13 0.00 85 1025.5
20210301130146 13 331 5.0 11.0 0.00 0.13 0.00 85 1025.3
20210301125641 13 355 4.0 11.0 0.00 0.13 0.00 85 1025.1
20210301125333 13 347 4.0 11.0 0.00 0.13 0.00 86 1024.9
20210301124640 13 23 4.0 11.0 0.00 0.14 0.00 86 1024.9
20210301124139 13 336 5.0 10.0 0.00 0.14 0.00 86 1024.7
20210301123644 13 305 5.0 10.0 0.00 0.14 0.00 86 1024.6
20210301123145 13 0 4.0 10.0 0.00 0.14 0.00 86 1024.6
20210301122903 14 355 4.0 7.0 0.00 0.14 0.00 87 1024.4
20210301122140 14 355 3.0 7.0 0.00 0.14 0.00 87 1024.3
20210301121642 14 340 3.0 7.0 0.00 0.14 0.00 87 1024.1
20210301121142 14 341 2.0 7.0 0.00 0.14 0.00 86 1024.0
20210301120648 14 333 2.0 4.0 0.00 0.14 0.00 95 1023.9
20210301120200 14 325 3.0 6.0 0.00 0.14 0.00 86 1023.8
20210301115736 14 345 2.0 6.0 0.00 0.15 0.00 86 1023.5
20210301115133 15 339 3.0 6.0 0.00 0.15 0.00 86 1023.3
20210301114659 15 322 3.0 6.0 0.00 0.15 0.00 86 1023.2
20210301114129 15 323 4.0 7.0 0.00 0.15 0.00 86 1023.1
20210301113629 15 331 4.0 9.0 0.00 0.15 0.00 86 1023.1
20210301113212 15 315 4.0 9.0 0.00 0.15 0.00 86 1022.9
20210301112924 15 309 4.0 9.0 0.00 0.15 0.00 86 1022.8
20210301112125 16 311 4.0 9.0 0.00 0.16 0.00 87 1022.7
20210301111624 16 313 4.0 10.0 0.00 0.16 0.00 87 1022.6
20210301111124 16 318 4.0 10.0 0.00 0.16 0.00 87 1022.4
20210301110625 16 327 4.0 7.0 0.00 0.16 0.00 87 1022.2
20210301110130 17 348 4.0 8.0 0.00 0.16 0.00 87 1022.1
20210301105623 17 5 4.0 8.0 0.00 0.16 0.00 87 1022.0
20210301105326 17 15 2.0 6.0 0.00 0.16 0.00 87 1022.0
20210301104625 17 338 3.0 6.0 0.00 0.16 0.00 87 1021.9
20210301104125 17 0 4.0 7.0 0.00 0.16 0.00 87 1022.0
20210301103624 17 22 4.0 7.0 0.00 0.16 0.00 88 1021.8
20210301103122 17 9 4.0 9.0 0.00 0.16 0.00 88 1021.5
20210301102739 17 351 4.0 9.0 0.00 0.16 0.00 88 1021.5
20210301102131 17 5 5.0 13.0 0.00 0.16 0.00 88 1021.3
20210301101629 17 9 5.0 13.0 0.00 0.16 0.00 88 1021.2
20210301101116 18 351 5.0 13.0 0.00 0.16 0.00 88 1021.1
20210301100613 18 355 4.0 9.0 0.00 0.16 0.00 88 1021.1
20210301100101 18 347 5.0 10.0 0.00 0.16 0.00 88 1020.9
20210301095558 18 341 5.0 10.0 0.00 0.16 0.00 88 1020.7
20210301095055 19 355 5.0 10.0 0.00 0.16 0.00 88 1020.5
20210301094546 19 344 5.0 9.0 0.00 0.16 0.00 88 1020.3
20210301094039 19 319 4.0 9.0 0.00 0.16 0.00 88 1020.3
20210301093535 19 333 4.0 9.0 0.00 0.16 0.00 88 1020.2
20210301093038 19 324 4.0 9.0 0.00 0.16 0.00 88 1020.1
20210301092703 19 313 4.0 10.0 0.00 0.16 0.00 87 1020.1
20210301092022 19 328 5.0 10.0 0.00 0.16 0.00 87 1020.2
20210301091537 19 340 4.0 7.0 0.00 0.16 0.00 87 1020.1
20210301091019 19 303 4.0 11.0 0.00 0.16 0.00 87 1019.9
20210301090459 19 355 5.0 11.0 0.00 0.16 0.00 86 1019.9
20210301085952 19 303 4.0 11.0 0.00 0.16 0.00 85 1019.9
20210301085445 19 329 4.0 9.0 0.00 0.16 0.00 85 1019.8
20210301084933 19 342 4.0 7.0 0.00 0.16 0.00 84 1019.6
20210301084433 19 329 4.0 7.0 0.00 0.16 0.00 83 1019.5
20210301083924 19 355 4.0 8.0 0.00 0.16 0.00 83 1019.5
20210301083415 19 331 4.0 8.0 0.00 0.16 0.00 82 1019.4
20210301082934 20 342 4.0 7.0 0.00 0.16 0.00 81 1019.4
20210301082435 20 316 3.0 7.0 0.00 0.16 0.00 80 1019.4
20210301081855 20 330 4.0 9.0 0.00 0.16 0.00 78 1019.3
20210301081346 20 304 5.0 9.0 0.00 0.16 0.00 77 1019.3
20210301080839 20 344 6.0 11.0 0.00 0.16 0.00 76 1019.3
20210301080329 20 300 5.0 11.0 0.00 0.16 0.00 75 1019.1
20210301075820 20 339 4.0 9.0 0.00 0.16 0.00 74 1019.2
20210301075315 20 311 3.0 8.0 0.00 0.16 0.00 74 1019.2
20210301074810 20 321 3.0 10.0 0.00 0.16 0.00 75 1019.2
20210301074306 20 306 4.0 10.0 0.00 0.16 0.00 74 1019.2
20210301073809 20 296 3.0 6.0 0.00 0.16 0.00 75 1019.2
20210301073307 20 297 3.0 6.0 0.00 0.16 0.00 75 1019.3
20210301072926 20 312 3.0 6.0 0.00 0.16 0.00 75 1019.3
20210301072313 20 304 3.0 6.0 0.00 0.16 0.00 74 1019.2
20210301071808 20 346 3.0 6.0 0.00 0.16 0.00 74 1018.9
20210301071307 20 295 3.0 6.0 0.00 0.16 0.00 74 1018.6
20210301070816 20 326 2.0 5.0 0.00 0.16 0.00 74 1018.5
20210301070304 20 281 3.0 11.0 0.00 0.16 0.00 74 1018.5
20210301065747 20 327 4.0 11.0 0.00 0.16 0.00 74 1018.5
20210301065237 20 292 3.0 7.0 0.00 0.16 0.00 74 1018.6
20210301064726 20 265 3.0 7.0 0.00 0.16 0.00 74 1018.6
20210301064214 20 301 3.0 5.0 0.00 0.16 0.00 74 1018.3
20210301063715 20 284 4.0 9.0 0.00 0.16 0.00 74 1018.2
20210301063217 20 331 4.0 9.0 0.00 0.16 0.00 74 1018.2
20210301062909 20 322 4.0 9.0 0.00 0.16 0.00 74 1018.3
20210301062213 20 292 4.0 9.0 0.00 0.16 0.00 74 1018.3
20210301061718 20 311 4.0 12.0 0.00 0.16 0.00 74 1018.3
20210301061217 20 321 5.0 12.0 0.00 0.16 0.00 74 1018.2
20210301060712 20 293 4.0 8.0 0.00 0.16 0.00 74 1018.2
20210301060212 20 285 3.0 8.0 0.00 0.16 0.00 74 1018.2
20210301055713 20 310 4.0 9.0 0.00 0.16 0.16 74 1018.1
20210301055212 20 317 3.0 9.0 0.00 0.16 0.16 73 1017.9
20210301054719 21 293 4.0 8.0 0.00 0.16 0.16 74 1017.9
20210301054212 21 321 4.0 9.0 0.00 0.16 0.16 73 1017.8
20210301053712 21 322 4.0 9.0 0.00 0.16 0.16 74 1017.7
20210301053208 21 341 4.0 8.0 0.00 0.16 0.16 74 1017.8
20210301052908 21 332 4.0 8.0 0.00 0.16 0.16 74 1017.8
20210301052209 21 32 3.0 7.0 0.00 0.16 0.16 74 1017.8
20210301051708 21 291 3.0 6.0 0.00 0.16 0.16 75 1017.7
20210301051213 21 296 3.0 6.0 0.00 0.16 0.16 75 1017.6
20210301050708 20 302 3.0 9.0 0.00 0.16 0.16 75 1017.7
20210301050217 20 306 3.0 9.0 0.00 0.16 0.16 75 1017.7
20210301045706 20 319 3.0 8.0 0.00 0.16 0.16 76 1017.6
20210301045355 20 300 4.0 6.0 0.00 0.16 0.16 76 1017.6
20210301044702 20 327 4.0 8.0 0.00 0.16 0.16 76 1017.6
20210301044202 20 293 4.0 8.0 0.00 0.16 0.16 76 1017.6
20210301043702 20 292 4.0 9.0 0.00 0.16 0.16 76 1017.5
20210301043152 20 282 4.0 9.0 0.00 0.16 0.16 76 1017.5
20210301042734 20 277 4.0 8.0 0.00 0.16 0.16 76 1017.6
20210301042140 20 290 4.0 6.0 0.00 0.16 0.16 75 1017.6
20210301041634 20 300 4.0 8.0 0.00 0.16 0.16 75 1017.7
20210301041131 20 290 4.0 8.0 0.00 0.16 0.16 75 1017.5
20210301040627 20 281 4.0 9.0 0.00 0.16 0.16 75 1017.4
20210301040122 20 281 3.0 7.0 0.00 0.16 0.16 75 1017.5
20210301035612 20 297 3.0 7.0 0.00 0.16 0.16 75 1017.3
20210301035351 20 279 3.0 11.0 0.00 0.16 0.16 75 1017.3
20210301034600 20 277 3.0 12.0 0.00 0.16 0.16 74 1017.2
20210301034053 20 254 3.0 12.0 0.00 0.16 0.16 74 1017.1
20210301033547 20 277 3.0 7.0 0.00 0.16 0.16 75 1017.0
20210301033045 20 296 3.0 6.0 0.00 0.16 0.16 75 1016.9
20210301032651 20 257 3.0 6.0 0.00 0.16 0.16 75 1016.9
20210301032044 20 298 4.0 7.0 0.00 0.16 0.16 74 1016.9
20210301031555 20 306 4.0 9.0 0.00 0.16 0.16 74 1016.9
20210301031048 20 297 4.0 9.0 0.00 0.16 0.16 74 1016.8
20210301030554 20 277 4.0 8.0 0.00 0.16 0.16 74 1016.8
20210301030044 20 300 4.0 8.0 0.00 0.16 0.16 74 1016.7
20210301025544 20 298 4.0 8.0 0.00 0.16 0.16 74 1016.6
20210301025044 20 279 4.0 8.0 0.00 0.16 0.16 74 1016.5
20210301024545 20 291 4.0 8.0 0.00 0.16 0.16 74 1016.4
20210301024044 20 276 4.0 9.0 0.00 0.16 0.16 74 1016.3
20210301023555 20 310 5.0 14.0 0.00 0.16 0.16 74 1016.3
20210301023114 20 263 5.0 14.0 0.00 0.16 0.16 74 1016.3
20210301022742 20 300 4.0 10.0 0.00 0.16 0.16 73 1016.4
20210301022045 20 311 4.0 11.0 0.00 0.16 0.16 73 1016.2
20210301021553 20 301 4.0 11.0 0.00 0.16 0.16 73 1016.2
20210301021046 20 275 5.0 10.0 0.00 0.16 0.16 73 1016.3
20210301020538 20 299 4.0 10.0 0.00 0.16 0.16 72 1016.3
20210301020046 20 271 4.0 8.0 0.00 0.16 0.16 72 1016.2
20210301015526 20 300 5.0 8.0 0.00 0.16 0.16 72 1016.1
20210301015023 20 282 4.0 8.0 0.00 0.16 0.16 72 1016.2
20210301014519 20 293 4.0 8.0 0.00 0.16 0.16 72 1016.3
20210301014027 20 270 4.0 8.0 0.00 0.16 0.16 72 1016.3
20210301013458 21 281 4.0 9.0 0.00 0.16 0.16 71 1016.3
20210301013029 21 285 4.0 9.0 0.00 0.16 0.16 71 1016.3
20210301012526 21 282 5.0 11.0 0.00 0.16 0.16 70 1016.1
20210301011947 21 265 5.0 12.0 0.00 0.16 0.16 70 1016.2
20210301011449 22 290 4.0 12.0 0.00 0.16 0.16 70 1016.0
20210301010943 22 316 3.0 7.0 0.00 0.16 0.16 70 1016.0
20210301010454 22 282 4.0 8.0 0.00 0.16 0.16 70 1015.9
20210301005945 22 294 5.0 9.0 0.00 0.16 0.16 69 1015.7
20210301005520 22 296 5.0 9.0 0.00 0.16 0.16 69 1015.6
20210301005257 22 331 4.0 9.0 0.00 0.16 0.16 70 1015.6
20210301004443 22 289 4.0 7.0 0.00 0.16 0.16 70 1015.4
20210301003943 23 268 5.0 9.0 0.00 0.16 0.16 69 1015.3
20210301003443 23 287 6.0 15.0 0.00 0.16 0.16 69 1015.2
20210301002945 23 287 5.0 15.0 0.00 0.16 0.16 68 1015.0
20210301002604 23 257 4.0 8.0 0.00 0.16 0.16 69 1014.9
20210301001946 24 290 4.0 9.0 0.00 0.16 0.16 69 1014.7
20210301001444 24 298 4.0 9.0 0.00 0.16 0.16 68 1014.7
20210301000946 24 283 5.0 11.0 0.00 0.16 0.16 67 1014.6
20210301000449 24 290 5.0 12.0 0.00 0.16 0.16 67 1014.5
20210228235937 25 281 5.0 12.0 0.00 0.16 0.16 67 1014.2
20210228235500 25 292 5.0 10.0 0.00 0.16 0.16 66 1014.1
20210228235022 25 268 5.0 10.0 0.00 0.16 0.16 67 1014.0
20210228234419 26 317 6.0 13.0 0.00 0.16 0.16 67 1014.0
20210228233908 26 276 6.0 13.0 0.00 0.16 0.16 66 1013.9
20210228233412 26 288 5.0 9.0 0.00 0.16 0.16 67 1013.9
20210228232926 27 288 5.0 11.0 0.00 0.16 0.16 67 1013.8
20210228232432 27 279 6.0 11.0 0.00 0.16 0.16 67 1013.7
20210228231906 27 280 5.0 11.0 0.00 0.16 0.16 67 1013.7
20210228231347 28 284 5.0 11.0 0.00 0.16 0.16 67 1013.7
20210228230838 28 292 5.0 12.0 0.00 0.16 0.16 67 1013.6
20210228230326 28 282 6.0 15.0 0.00 0.16 0.16 67 1013.5
20210228225821 28 314 6.0 16.0 0.00 0.16 0.16 67 1013.4
20210228225331 29 255 5.0 16.0 0.00 0.16 0.16 67 1013.2
20210228224831 29 289 4.0 11.0 0.00 0.16 0.16 66 1013.2
20210228224308 30 293 4.0 11.0 0.01 0.16 0.16 67 1013.1
20210228223803 30 271 4.0 11.0 0.01 0.16 0.16 67 1013.1
20210228223259 30 298 6.0 11.0 0.01 0.16 0.16 67 1013.1
20210228222837 30 296 5.0 10.0 0.01 0.16 0.16 66 1013.1
20210228222244 30 282 5.0 13.0 0.01 0.16 0.16 67 1013.0
20210228221741 30 273 6.0 13.0 0.01 0.16 0.16 67 1013.1
20210228221231 31 294 6.0 11.0 0.01 0.16 0.16 67 1013.1
20210228220722 31 272 5.0 9.0 0.02 0.16 0.16 67 1013.1
20210228220219 31 282 5.0 10.0 0.02 0.16 0.16 67 1012.9
20210228215714 31 309 6.0 10.0 0.02 0.16 0.16 67 1012.8
20210228215327 31 281 5.0 10.0 0.02 0.16 0.16 68 1012.8
20210228214703 31 324 5.0 13.0 0.02 0.16 0.16 69 1012.8
20210228214151 31 296 5.0 13.0 0.01 0.15 0.15 68 1012.8
20210228213654 31 288 6.0 12.0 0.01 0.15 0.15 68 1012.7
20210228213143 32 269 6.0 12.0 0.01 0.15 0.15 70 1012.6